TimeCDT,TemperatureF,Dew PointF,Humidity,Sea Level PressureIn,VisibilityMPH,Wind Direction,Wind SpeedMPH,Gust SpeedMPH,PrecipitationIn,Events,Conditions,WindDirDegrees,DateUTC
12:53 AM,62.1,62.1,100,30.17,7.0,Calm,Calm,-,N/A,,Clear,0,2012-10-05 05:53:00
1:53 AM,64.0,61.0,90,30.17,8.0,Calm,Calm,-,N/A,,Clear,0,2012-10-05 06:53:00
2:53 AM,62.6,60.8,94,30.16,10.0,Calm,Calm,-,N/A,,Clear,0,2012-10-05 07:53:00
3:53 AM,61.0,59.0,93,30.15,7.0,Calm,Calm,-,N/A,,Clear,0,2012-10-05 08:53:00
4:53 AM,60.1,59.0,96,30.15,6.0,Calm,Calm,-,N/A,,Clear,0,2012-10-05 09:53:00
5:53 AM,60.1,57.9,93,30.15,7.0,Calm,Calm,-,N/A,,Clear,0,2012-10-05 10:53:00
6:53 AM,59.0,57.9,96,30.15,7.0,Calm,Calm,-,N/A,,Clear,0,2012-10-05 11:53:00
7:53 AM,64.0,61.0,90,30.15,8.0,Calm,Calm,-,N/A,,Clear,0,2012-10-05 12:53:00
8:53 AM,71.1,62.1,73,30.15,10.0,South,6.9,-,N/A,,Mostly Cloudy,180,2012-10-05 13:53:00
9:53 AM,75.0,63.0,66,30.15,10.0,South,8.1,-,N/A,,Mostly Cloudy,190,2012-10-05 14:53:00
10:53 AM,79.0,63.0,58,30.13,10.0,SSE,11.5,-,N/A,,Clear,160,2012-10-05 15:53:00
11:53 AM,82.4,62.6,51,30.11,10.0,South,8.1,-,N/A,,Clear,190,2012-10-05 16:53:00
12:53 PM,82.9,62.1,49,30.09,10.0,WSW,8.1,16.1,N/A,,Clear,240,2012-10-05 17:53:00
1:53 PM,81.0,62.1,52,30.06,10.0,SW,5.8,-,N/A,,Mostly Cloudy,220,2012-10-05 18:53:00
2:53 PM,81.0,61.0,50,30.04,10.0,South,6.9,-,N/A,,Partly Cloudy,180,2012-10-05 19:53:00
3:53 PM,82.9,61.0,47,30.01,10.0,SW,9.2,-,N/A,,Partly Cloudy,230,2012-10-05 20:53:00
4:53 PM,82.0,61.0,49,30.00,10.0,SW,6.9,-,N/A,,Partly Cloudy,220,2012-10-05 21:53:00
5:53 PM,80.1,62.1,54,29.99,10.0,SW,4.6,-,N/A,,Clear,230,2012-10-05 22:53:00
6:53 PM,72.0,64.9,78,29.98,10.0,Calm,Calm,-,N/A,,Clear,0,2012-10-05 23:53:00
7:53 PM,71.1,64.9,81,29.99,10.0,South,3.5,-,N/A,,Clear,170,2012-10-06 00:53:00
8:53 PM,68.0,64.9,90,30.00,10.0,Calm,Calm,-,N/A,,Clear,0,2012-10-06 01:53:00
9:53 PM,64.9,64.0,97,30.01,8.0,Calm,Calm,-,N/A,,Clear,0,2012-10-06 02:53:00
10:53 PM,68.0,66.0,93,30.01,9.0,Calm,Calm,-,N/A,,Overcast,0,2012-10-06 03:53:00
11:53 PM,70.0,64.0,81,30.03,10.0,NNW,11.5,-,N/A,,Overcast,330,2012-10-06 04:53:00